Weather History for Palmer, AK

Change the Weather History Date:

Sunday, January 26, 2014

  Actual Average Record
Temperature  
Mean Temperature 48 °F -  
Max Temperature 55 °F 19 °F 55 °F (2014)
Min Temperature 41 °F 3 °F -30 °F (1973)
Degree Days  
Heating Degree Days 17    
Moisture  
Dew Point 31 °F    
Average Humidity 58    
Maximum Humidity 66    
Minimum Humidity 34    
Precipitation  
Precipitation 0.00 in - - ()
Sea Level Pressure  
Sea Level Pressure 29.99 in    
Wind  
Wind Speed 13 mph (NE)    
Max Wind Speed 24 mph    
Max Gust Speed 29 mph    
Visibility 10 miles    
Events      
Averages and records for this station are not official NWS values.
T = Trace of Precipitation, MM = Missing Value Source: NWS Daily Summary

Daily Weather History Graph

Daily Weather History Graph

Search for Another Location

Airport:

Trip Planner

Search our weather history database for the weather conditions in past years. The results will help you decide how hot, cold, wet, or windy it might be!

Date:

Astronomy

Jan. 26, 2014 Rise Set
Actual Time 9:33 AM AKST 4:45 PM AKST
Civil Twilight 8:40 AM AKST 5:37 PM AKST
Nautical Twilight 7:46 AM AKST 6:32 PM AKST
Astronomical Twilight 6:54 AM AKST 7:24 PM AKST
Moon 5:31 AM AKST (1/26) 12:31 PM AKST (1/26)
Length of Visible Light 8h 57m
Length of Day
7h 11m
Waning Crescent, 22% of the Moon is Illuminated
Jan 26
Waning Crescent
Jan 30
New
Feb 6
First Quarter
Feb 14
Full
Feb 22
Last Quarter

Hourly Weather History & Observations

Time (AKST) Temp. Windchill Dew Point Humidity Pressure Visibility Wind Dir Wind Speed Gust Speed Precip Events Conditions
12:53 AM 42.1 °F 33.9 °F 30.0 °F 62% 29.99 in 10.0 mi North 17.3 mph - N/A   Clear
1:53 AM 41.0 °F 32.5 °F 30.0 °F 65% 29.98 in 10.0 mi North 17.3 mph 23.0 mph N/A   Clear
2:53 AM 41.0 °F 38.0 °F 28.9 °F 62% 29.97 in 10.0 mi ENE 4.6 mph - N/A   Clear
3:53 AM 41.0 °F 38.0 °F 28.9 °F 62% 29.95 in 10.0 mi NNW 4.6 mph - N/A   Clear
4:53 AM 42.1 °F 34.2 °F 28.9 °F 60% 29.93 in 10.0 mi NNW 16.1 mph - N/A   Clear
5:53 AM 46.9 °F - 27.0 °F 46% 29.95 in 10.0 mi North 8.1 mph - N/A   Clear
6:53 AM 55.0 °F - 27.0 °F 34% 29.97 in 10.0 mi SE 16.1 mph 21.9 mph N/A   Clear
7:53 AM 52.0 °F - 27.0 °F 38% 29.97 in 10.0 mi SSE 9.2 mph - N/A   Scattered Clouds
8:53 AM 51.1 °F - 32.0 °F 48% 30.01 in 10.0 mi SSE 17.3 mph 26.5 mph N/A   Scattered Clouds
9:53 AM 48.9 °F - 34.0 °F 56% 30.04 in 10.0 mi SSE 15.0 mph 27.6 mph N/A   Mostly Cloudy
10:53 AM 48.9 °F - 34.0 °F 56% 30.04 in 10.0 mi ESE 12.7 mph 20.7 mph N/A   Mostly Cloudy
11:11 AM 50.0 °F - 35.6 °F 58% 30.01 in 10.0 mi SE 23.0 mph 28.8 mph N/A   Mostly Cloudy
11:53 AM 48.0 °F - 36.0 °F 63% 30.03 in 10.0 mi ESE 19.6 mph 28.8 mph N/A   Mostly Cloudy
12:53 PM 48.9 °F - 30.0 °F 48% 30.04 in 10.0 mi NNE 9.2 mph 23.0 mph N/A   Mostly Cloudy
1:48 PM 48.2 °F - 35.6 °F 62% 30.04 in 10.0 mi ESE 16.1 mph 21.9 mph N/A   Mostly Cloudy
1:53 PM 48.0 °F - 36.0 °F 63% 30.04 in 10.0 mi SE 24.2 mph 27.6 mph N/A   Mostly Cloudy
2:53 PM 48.0 °F - 36.0 °F 63% 30.02 in 10.0 mi ESE 18.4 mph 26.5 mph N/A   Mostly Cloudy
3:53 PM 46.9 °F - 36.0 °F 66% 30.01 in 10.0 mi NE 4.6 mph - N/A   Mostly Cloudy
4:53 PM 42.1 °F 37.1 °F 28.9 °F 60% 30.01 in 10.0 mi North 8.1 mph - N/A   Mostly Cloudy
5:53 PM 41.0 °F 35.2 °F 30.0 °F 65% 30.02 in 10.0 mi NNE 9.2 mph 16.1 mph N/A   Scattered Clouds
6:53 PM 42.1 °F 37.1 °F 30.0 °F 62% 30.01 in 10.0 mi NNW 8.1 mph - N/A   Clear
7:53 PM 42.1 °F 37.1 °F 28.9 °F 60% 30.00 in 10.0 mi NNE 8.1 mph - N/A   Clear
8:53 PM 42.1 °F 36.6 °F 28.9 °F 60% 29.98 in 10.0 mi North 9.2 mph - N/A   Clear
9:53 PM 41.0 °F 33.9 °F 28.9 °F 62% 29.96 in 10.0 mi North 12.7 mph - N/A   Clear
10:53 PM 41.0 °F 33.5 °F 30.0 °F 65% 29.95 in 10.0 mi North 13.8 mph - N/A   Clear
11:53 PM 41.0 °F 34.7 °F 30.0 °F 65% 29.93 in 10.0 mi North 10.4 mph - N/A   Clear